User: anonymous   Login
Location: Trois-Rivi�res
(46.3500°N, 72.5500°W)
Time: 20:12:18
(UTC-05:00)
Language:

SJ-11-01 - Orbit

View from above orbital plane
View from above orbital plane
View from above satellite
View from above satellite

Ground track
Ground track

The orbit data is extracted from the following two-line orbital elements,

1 36088U 09061A   17023.43764468  .00000059  00000-0  21895-4 0  9999
2 36088  98.1584  73.7498 0011783   5.0094 355.1225 14.59910191383522
Epoch (UTC): 23 January 2017 10:30:12
Eccentricity: 0.0011783
inclination: 98.1584°
perigee height: 685 km
apogee height: 702 km
right ascension of ascending node: 73.7498°
argument of perigee: 5.0094°
revolutions per day: 14.59910191
mean anomaly at epoch: 355.1225°
orbit number at epoch: 38352

The dashed part of the orbit path shows where the satellite is in the earth's shadow,  

DLR